Volver al catálogo

BREEZE-M DEB

ActivoHEO
NORAD 32037·DEBRIS·🇷🇺 Russia

Lanzado Feb 28, 2006 desde Baikonur Cosmodrome

Loading…

Próximos Pases (próximas 24 horas)

TLE

ActualizadoSource: Space-Track

Época: Sep 13, 2026, 06:15 UTC

1 32037U 06006Q   26256.26060417  .00002928  00000-0  14980-2 0  9999
2 32037  51.6280 219.1633 4768429 162.0686 223.3663  5.89568211397585

Sigue BREEZE-M DEB en tiempo real con AllMySat

Download on the App Store